| time (UTC) | temp C | wind direction | speed KPH | gust KPH | rain 1hr cm | rain 24hr cm | rain mn cm | humidity % | barometer mb |
| 20260506132543 | 13 | 309 | 0.0 | 11.3 | 0.00 | 0.00 | 0.00 | 79 | 1014.5 |
| 20260506132039 | 13 | 0 | 0.0 | 8.0 | 0.00 | 0.00 | 0.00 | 79 | 1014.3 |
| 20260506131557 | 13 | 197 | 1.6 | 8.0 | 0.00 | 0.00 | 0.00 | 79 | 1014.1 |
| 20260506131039 | 13 | 79 | 1.6 | 8.0 | 0.00 | 0.00 | 0.00 | 79 | 1014.1 |
| 20260506130540 | 13 | 308 | 1.6 | 8.0 | 0.00 | 0.00 | 0.00 | 78 | 1014.1 |
| 20260506130056 | 13 | 34 | 1.6 | 12.9 | 0.00 | 0.00 | 0.00 | 78 | 1014.2 |
| 20260506125537 | 13 | 75 | 0.0 | 12.9 | 0.00 | 0.00 | 0.00 | 78 | 1014.2 |
| 20260506125039 | 13 | 0 | 0.0 | 4.8 | 0.00 | 0.00 | 0.00 | 78 | 1014.0 |
| 20260506124553 | 13 | 50 | 0.0 | 8.0 | 0.00 | 0.00 | 0.00 | 78 | 1013.9 |
| 20260506124039 | 13 | 320 | 1.6 | 8.0 | 0.00 | 0.00 | 0.00 | 78 | 1013.8 |
| 20260506123539 | 13 | 0 | 0.0 | 11.3 | 0.00 | 0.00 | 0.00 | 78 | 1013.7 |
| 20260506123053 | 13 | 314 | 0.0 | 11.3 | 0.00 | 0.00 | 0.00 | 78 | 1013.5 |
| 20260506122538 | 13 | 316 | 0.0 | 3.2 | 0.00 | 0.00 | 0.00 | 78 | 1013.5 |
| 20260506122039 | 13 | 0 | 0.0 | 1.6 | 0.00 | 0.00 | 0.00 | 77 | 1013.4 |
| 20260506121553 | 13 | 0 | 0.0 | 6.4 | 0.00 | 0.00 | 0.00 | 77 | 1013.4 |
| 20260506121039 | 13 | 0 | 0.0 | 6.4 | 0.00 | 0.00 | 0.00 | 77 | 1013.4 |
| 20260506120538 | 14 | 329 | 0.0 | 3.2 | 0.00 | 0.00 | 0.00 | 77 | 1013.4 |
| 20260506115537 | 14 | 295 | 0.0 | 4.8 | 0.00 | 0.00 | 0.00 | 76 | 1013.3 |
| 20260506115039 | 14 | 307 | 0.0 | 4.8 | 0.00 | 0.00 | 0.00 | 76 | 1013.2 |
| 20260506114555 | 14 | 334 | 0.0 | 4.8 | 0.00 | 0.00 | 0.00 | 76 | 1013.0 |
| 20260506114039 | 14 | 311 | 0.0 | 4.8 | 0.00 | 0.00 | 0.00 | 76 | 1013.0 |
| 20260506113539 | 14 | 325 | 0.0 | 1.6 | 0.00 | 0.00 | 0.00 | 76 | 1012.8 |
| 20260506113050 | 15 | 316 | 0.0 | 1.6 | 0.00 | 0.00 | 0.00 | 76 | 1012.7 |
| 20260506112540 | 15 | 0 | 0.0 | 1.6 | 0.00 | 0.00 | 0.00 | 76 | 1012.6 |
| 20260506112039 | 15 | 308 | 0.0 | 1.6 | 0.00 | 0.00 | 0.00 | 76 | 1012.5 |
| 20260506111554 | 15 | 334 | 0.0 | 1.6 | 0.00 | 0.00 | 0.00 | 76 | 1012.5 |
| 20260506111039 | 15 | 0 | 0.0 | 1.6 | 0.00 | 0.00 | 0.00 | 77 | 1012.5 |
| 20260506110536 | 15 | 0 | 0.0 | 1.6 | 0.00 | 0.00 | 0.00 | 77 | 1012.3 |
| 20260506110055 | 15 | 0 | 0.0 | 1.6 | 0.00 | 0.00 | 0.00 | 78 | 1012.2 |
| 20260506105540 | 15 | 296 | 0.0 | 1.6 | 0.00 | 0.00 | 0.00 | 78 | 1012.2 |
| 20260506105037 | 15 | 0 | 0.0 | 1.6 | 0.00 | 0.00 | 0.00 | 78 | 1012.1 |
| 20260506104556 | 15 | 316 | 0.0 | 1.6 | 0.00 | 0.00 | 0.00 | 79 | 1012.1 |
| 20260506104037 | 15 | 311 | 0.0 | 1.6 | 0.00 | 0.00 | 0.00 | 79 | 1011.9 |
| 20260506103540 | 15 | 0 | 0.0 | 3.2 | 0.00 | 0.00 | 0.00 | 79 | 1011.9 |
| 20260506103054 | 15 | 0 | 0.0 | 3.2 | 0.00 | 0.00 | 0.00 | 79 | 1011.9 |
| 20260506102540 | 15 | 0 | 0.0 | 3.2 | 0.00 | 0.00 | 0.00 | 78 | 1011.7 |
| 20260506102038 | 15 | 309 | 0.0 | 3.2 | 0.00 | 0.00 | 0.00 | 78 | 1011.7 |
| 20260506101553 | 15 | 0 | 0.0 | 3.2 | 0.00 | 0.00 | 0.00 | 78 | 1011.6 |
| 20260506101039 | 15 | 309 | 0.0 | 3.2 | 0.00 | 0.00 | 0.00 | 78 | 1011.7 |
| 20260506100539 | 16 | 305 | 0.0 | 3.2 | 0.00 | 0.00 | 0.00 | 77 | 1011.6 |
| 20260506100105 | 16 | 316 | 0.0 | 3.2 | 0.00 | 0.00 | 0.00 | 77 | 1011.4 |
| 20260506095541 | 16 | 297 | 0.0 | 1.6 | 0.00 | 0.00 | 0.00 | 76 | 1011.3 |
| 20260506095039 | 16 | 0 | 0.0 | 4.8 | 0.00 | 0.00 | 0.00 | 76 | 1011.4 |
| 20260506094551 | 16 | 0 | 0.0 | 4.8 | 0.00 | 0.00 | 0.00 | 76 | 1011.3 |
| 20260506094039 | 16 | 0 | 0.0 | 4.8 | 0.00 | 0.00 | 0.00 | 76 | 1011.1 |
| 20260506093536 | 16 | 305 | 0.0 | 1.6 | 0.00 | 0.00 | 0.00 | 76 | 1011.2 |
| 20260506093049 | 16 | 0 | 0.0 | 1.6 | 0.00 | 0.00 | 0.00 | 76 | 1011.3 |
| 20260506092538 | 16 | 285 | 0.0 | 1.6 | 0.00 | 0.00 | 0.00 | 76 | 1011.3 |
| 20260506092040 | 16 | 302 | 0.0 | 4.8 | 0.00 | 0.00 | 0.00 | 76 | 1011.3 |
| 20260506091553 | 16 | 0 | 0.0 | 4.8 | 0.00 | 0.00 | 0.00 | 76 | 1011.2 |
| 20260506091037 | 16 | 0 | 0.0 | 3.2 | 0.00 | 0.00 | 0.00 | 77 | 1011.1 |
| 20260506090539 | 16 | 0 | 0.0 | 3.2 | 0.00 | 0.00 | 0.00 | 77 | 1011.2 |
| 20260506090050 | 16 | 0 | 0.0 | 3.2 | 0.00 | 0.00 | 0.00 | 77 | 1011.2 |
| 20260506085537 | 16 | 300 | 0.0 | 3.2 | 0.00 | 0.00 | 0.00 | 77 | 1011.1 |
| 20260506085039 | 16 | 0 | 0.0 | 6.4 | 0.00 | 0.00 | 0.00 | 77 | 1011.0 |
| 20260506084553 | 16 | 310 | 0.0 | 6.4 | 0.00 | 0.00 | 0.00 | 77 | 1010.9 |
| 20260506084037 | 16 | 0 | 0.0 | 6.4 | 0.00 | 0.00 | 0.00 | 77 | 1010.8 |
| 20260506083539 | 16 | 0 | 0.0 | 3.2 | 0.00 | 0.00 | 0.00 | 77 | 1010.8 |
| 20260506083047 | 17 | 307 | 0.0 | 4.8 | 0.00 | 0.00 | 0.00 | 77 | 1010.6 |
| 20260506082542 | 17 | 0 | 0.0 | 4.8 | 0.00 | 0.00 | 0.00 | 77 | 1010.6 |
| 20260506082040 | 17 | 318 | 0.0 | 9.7 | 0.00 | 0.00 | 0.00 | 77 | 1010.5 |
| 20260506081555 | 17 | 0 | 0.0 | 9.7 | 0.00 | 0.00 | 0.00 | 77 | 1010.4 |
| 20260506081039 | 17 | 51 | 0.0 | 3.2 | 0.00 | 0.00 | 0.00 | 77 | 1010.5 |
| 20260506080539 | 17 | 49 | 0.0 | 3.2 | 0.00 | 0.00 | 0.00 | 77 | 1010.4 |
| 20260506073051 | 17 | 0 | 0.0 | 3.2 | 0.00 | 0.00 | 0.00 | 76 | 1010.8 |
| 20260506072538 | 17 | 309 | 0.0 | 4.8 | 0.00 | 0.00 | 0.00 | 76 | 1010.8 |
| 20260506072038 | 17 | 297 | 0.0 | 6.4 | 0.00 | 0.00 | 0.00 | 76 | 1010.7 |
| 20260506071557 | 17 | 69 | 0.0 | 6.4 | 0.00 | 0.00 | 0.00 | 77 | 1010.7 |
| 20260506071037 | 17 | 0 | 0.0 | 9.7 | 0.00 | 0.00 | 0.00 | 76 | 1010.7 |
| 20260506070539 | 17 | 0 | 0.0 | 9.7 | 0.00 | 0.00 | 0.00 | 76 | 1010.7 |
| 20260506062039 | 18 | 0 | 0.0 | 3.2 | 0.00 | 0.00 | 0.00 | 76 | 1010.4 |
| 20260506061548 | 18 | 302 | 0.0 | 3.2 | 0.00 | 0.00 | 0.00 | 76 | 1010.5 |
| 20260506061039 | 19 | 0 | 0.0 | 3.2 | 0.00 | 0.00 | 0.00 | 76 | 1010.4 |
| 20260506060539 | 19 | 0 | 0.0 | 3.2 | 0.00 | 0.00 | 0.00 | 76 | 1010.4 |
| 20260506051039 | 20 | 349 | 0.0 | 8.0 | 0.00 | 0.00 | 0.00 | 74 | 1010.2 |
| 20260506050543 | 21 | 288 | 0.0 | 3.2 | 0.00 | 0.00 | 0.00 | 74 | 1010.1 |
| 20260506045039 | 21 | 266 | 0.0 | 1.6 | 0.00 | 0.00 | 0.00 | 74 | 1010.0 |
| 20260506044549 | 21 | 0 | 0.0 | 1.6 | 0.00 | 0.00 | 0.00 | 74 | 1010.1 |
| 20260506044037 | 22 | 300 | 0.0 | 1.6 | 0.00 | 0.00 | 0.00 | 74 | 1010.0 |
| 20260506043538 | 22 | 0 | 0.0 | 1.6 | 0.00 | 0.00 | 0.00 | 74 | 1010.0 |
| 20260506043047 | 22 | 0 | 0.0 | 1.6 | 0.00 | 0.00 | 0.00 | 74 | 1009.9 |
| 20260506042537 | 22 | 289 | 0.0 | 1.6 | 0.00 | 0.00 | 0.00 | 74 | 1009.8 |
| 20260506042039 | 22 | 0 | 0.0 | 1.6 | 0.00 | 0.00 | 0.00 | 74 | 1009.7 |
| 20260506041551 | 22 | 0 | 0.0 | 1.6 | 0.00 | 0.00 | 0.00 | 74 | 1009.8 |
| 20260506041038 | 22 | 0 | 0.0 | 1.6 | 0.00 | 0.00 | 0.00 | 74 | 1009.7 |
| 20260506040538 | 22 | 0 | 0.0 | 3.2 | 0.00 | 0.00 | 0.00 | 73 | 1009.6 |
| 20260506040108 | 22 | 0 | 0.0 | 3.2 | 0.00 | 0.00 | 0.00 | 73 | 1009.6 |
| 20260506035539 | 22 | 0 | 0.0 | 3.2 | 0.00 | 0.00 | 0.00 | 73 | 1009.5 |
| 20260506035039 | 22 | 284 | 0.0 | 3.2 | 0.00 | 0.00 | 0.00 | 72 | 1009.4 |
| 20260506034551 | 22 | 0 | 0.0 | 3.2 | 0.00 | 0.00 | 0.00 | 72 | 1009.3 |
| 20260506034038 | 22 | 0 | 0.0 | 1.6 | 0.00 | 0.00 | 0.00 | 72 | 1009.2 |
| 20260506033538 | 23 | 0 | 0.0 | 3.2 | 0.00 | 0.00 | 0.00 | 72 | 1009.0 |
| 20260506033049 | 23 | 0 | 0.0 | 4.8 | 0.00 | 0.00 | 0.00 | 71 | 1009.0 |
| 20260506032539 | 23 | 311 | 0.0 | 4.8 | 0.00 | 0.00 | 0.00 | 70 | 1009.0 |
| 20260506032043 | 23 | 305 | 0.0 | 4.8 | 0.00 | 0.00 | 0.00 | 70 | 1009.1 |
| 20260506031547 | 23 | 0 | 0.0 | 4.8 | 0.00 | 0.00 | 0.00 | 70 | 1009.3 |
| 20260506031038 | 23 | 293 | 0.0 | 4.8 | 0.00 | 0.00 | 0.00 | 69 | 1009.2 |
| 20260506030539 | 23 | 0 | 0.0 | 4.8 | 0.00 | 0.00 | 0.00 | 70 | 1008.8 |
| 20260506025539 | 24 | 0 | 0.0 | 1.6 | 0.00 | 0.00 | 0.00 | 69 | 1008.6 |
| 20260506025039 | 24 | 0 | 0.0 | 3.2 | 0.00 | 0.00 | 0.00 | 69 | 1008.5 |
| 20260506024554 | 24 | 315 | 0.0 | 3.2 | 0.00 | 0.00 | 0.00 | 69 | 1008.3 |
| 20260506024039 | 25 | 0 | 0.0 | 1.6 | 0.00 | 0.00 | 0.00 | 70 | 1008.1 |
| 20260506023539 | 25 | 0 | 0.0 | 1.6 | 0.00 | 0.00 | 0.00 | 70 | 1007.8 |
| 20260506023049 | 25 | 0 | 0.0 | 1.6 | 0.00 | 0.00 | 0.00 | 70 | 1007.7 |
| 20260506022539 | 25 | 311 | 0.0 | 1.6 | 0.00 | 0.00 | 0.00 | 69 | 1007.5 |
| 20260506022039 | 26 | 0 | 0.0 | 1.6 | 0.00 | 0.00 | 0.00 | 70 | 1007.4 |
| 20260506021559 | 26 | 323 | 0.0 | 0.0 | 0.00 | 0.00 | 0.00 | 78 | 1007.3 |
| 20260506021039 | 26 | 0 | 0.0 | 0.0 | 0.00 | 0.00 | 0.00 | 80 | 1007.2 |
| 20260506020538 | 26 | 0 | 0.0 | 0.0 | 0.00 | 0.00 | 0.00 | 79 | 1007.2 |
| 20260506020047 | 26 | 0 | 0.0 | 0.0 | 0.00 | 0.00 | 0.00 | 79 | 1007.1 |
| 20260506015539 | 26 | 0 | 0.0 | 0.0 | 0.00 | 0.00 | 0.00 | 79 | 1007.1 |
| 20260506015042 | 26 | 0 | 0.0 | 0.0 | 0.00 | 0.00 | 0.00 | 79 | 1007.2 |
| 20260506014559 | 26 | 0 | 0.0 | 0.0 | 0.00 | 0.00 | 0.00 | 79 | 1007.0 |
| 20260506014038 | 26 | 0 | 0.0 | 0.0 | 0.00 | 0.00 | 0.00 | 79 | 1006.9 |
| 20260506013538 | 26 | 0 | 0.0 | 0.0 | 0.00 | 0.00 | 0.00 | 79 | 1006.7 |
| 20260506013056 | 26 | 0 | 0.0 | 0.0 | 0.00 | 0.00 | 0.00 | 79 | 1006.9 |
| 20260506012539 | 26 | 0 | 0.0 | 0.0 | 0.00 | 0.00 | 0.00 | 79 | 1006.9 |
| 20260506012039 | 26 | 0 | 0.0 | 0.0 | 0.00 | 0.00 | 0.00 | 79 | 1006.8 |
| 20260506011553 | 26 | 0 | 0.0 | 0.0 | 0.00 | 0.00 | 0.00 | 79 | 1006.6 |
| 20260506011038 | 26 | 0 | 0.0 | 0.0 | 0.00 | 0.00 | 0.00 | 79 | 1006.3 |
| 20260506010539 | 26 | 0 | 0.0 | 1.6 | 0.00 | 0.00 | 0.00 | 79 | 1006.4 |
| 20260506010103 | 26 | 0 | 0.0 | 1.6 | 0.00 | 0.00 | 0.00 | 79 | 1006.4 |
| 20260506005539 | 26 | 0 | 0.0 | 1.6 | 0.00 | 0.00 | 0.00 | 78 | 1006.4 |
| 20260506005039 | 26 | 207 | 0.0 | 1.6 | 0.00 | 0.00 | 0.00 | 78 | 1006.2 |
| 20260506004552 | 26 | 0 | 0.0 | 1.6 | 0.00 | 0.00 | 0.00 | 78 | 1006.1 |
| 20260506004040 | 26 | 187 | 0.0 | 1.6 | 0.00 | 0.00 | 0.00 | 78 | 1006.0 |
| 20260506003539 | 27 | 0 | 0.0 | 1.6 | 0.00 | 0.00 | 0.00 | 78 | 1006.0 |
| 20260506003048 | 27 | 0 | 0.0 | 1.6 | 0.00 | 0.00 | 0.00 | 78 | 1006.0 |
| 20260506002537 | 27 | 0 | 0.0 | 3.2 | 0.00 | 0.00 | 0.00 | 77 | 1006.0 |
| 20260506002039 | 27 | 194 | 0.0 | 3.2 | 0.00 | 0.00 | 0.00 | 77 | 1005.9 |
| 20260506001553 | 27 | 0 | 0.0 | 3.2 | 0.00 | 0.00 | 0.00 | 77 | 1005.7 |
| 20260506001040 | 27 | 200 | 1.6 | 4.8 | 0.00 | 0.00 | 0.00 | 76 | 1005.7 |
| 20260506000539 | 27 | 191 | 0.0 | 6.4 | 0.00 | 0.00 | 0.00 | 76 | 1005.7 |
| 20260506000049 | 27 | 213 | 1.6 | 6.4 | 0.00 | 0.00 | 0.00 | 76 | 1005.6 |
| 20260505235538 | 27 | 181 | 1.6 | 6.4 | 0.00 | 0.00 | 0.00 | 76 | 1005.5 |
| 20260505235039 | 27 | 187 | 0.0 | 3.2 | 0.00 | 0.00 | 0.00 | 76 | 1005.7 |
| 20260505234554 | 27 | 187 | 0.0 | 4.8 | 0.00 | 0.00 | 0.00 | 76 | 1005.7 |
| 20260505234039 | 27 | 168 | 0.0 | 4.8 | 0.00 | 0.00 | 0.00 | 75 | 1005.8 |
| 20260505233539 | 27 | 0 | 1.6 | 3.2 | 0.00 | 0.00 | 0.00 | 75 | 1005.8 |
| 20260505233107 | 28 | 156 | 1.6 | 6.4 | 0.00 | 0.00 | 0.00 | 75 | 1005.7 |
| 20260505232538 | 28 | 229 | 0.0 | 6.4 | 0.00 | 0.00 | 0.00 | 75 | 1005.7 |
| 20260505232040 | 28 | 179 | 1.6 | 6.4 | 0.00 | 0.00 | 0.00 | 74 | 1005.6 |
| 20260505231553 | 28 | 184 | 1.6 | 4.8 | 0.00 | 0.00 | 0.00 | 74 | 1005.7 |
| 20260505231039 | 28 | 208 | 0.0 | 4.8 | 0.00 | 0.00 | 0.00 | 75 | 1005.6 |
| 20260505230539 | 28 | 195 | 1.6 | 6.4 | 0.00 | 0.00 | 0.00 | 74 | 1005.5 |
| 20260505230054 | 28 | 0 | 1.6 | 6.4 | 0.00 | 0.00 | 0.00 | 74 | 1005.3 |
| 20260505225539 | 28 | 200 | 1.6 | 6.4 | 0.00 | 0.00 | 0.00 | 73 | 1005.3 |
| 20260505225037 | 28 | 265 | 1.6 | 6.4 | 0.00 | 0.00 | 0.00 | 73 | 1005.3 |
| 20260505224551 | 28 | 128 | 1.6 | 6.4 | 0.00 | 0.00 | 0.00 | 73 | 1005.3 |
| 20260505224039 | 28 | 143 | 0.0 | 4.8 | 0.00 | 0.00 | 0.00 | 73 | 1005.3 |
| 20260505223536 | 28 | 218 | 1.6 | 4.8 | 0.00 | 0.00 | 0.00 | 73 | 1005.1 |
| 20260505223055 | 29 | 206 | 0.0 | 4.8 | 0.00 | 0.00 | 0.00 | 72 | 1005.2 |
| 20260505222538 | 29 | 213 | 1.6 | 4.8 | 0.00 | 0.00 | 0.00 | 72 | 1005.2 |
| 20260505222038 | 29 | 210 | 0.0 | 3.2 | 0.00 | 0.00 | 0.00 | 71 | 1005.1 |
| 20260505221558 | 30 | 205 | 0.0 | 3.2 | 0.00 | 0.00 | 0.00 | 70 | 1005.1 |
| 20260505221041 | 30 | 0 | 1.6 | 3.2 | 0.00 | 0.00 | 0.00 | 69 | 1005.2 |
| 20260505220537 | 30 | 143 | 1.6 | 3.2 | 0.00 | 0.00 | 0.00 | 69 | 1005.2 |
| 20260505220049 | 30 | 153 | 0.0 | 4.8 | 0.00 | 0.00 | 0.00 | 69 | 1005.2 |
| 20260505215539 | 30 | 172 | 1.6 | 4.8 | 0.00 | 0.00 | 0.00 | 69 | 1005.2 |
| 20260505215039 | 30 | 174 | 1.6 | 4.8 | 0.00 | 0.00 | 0.00 | 68 | 1005.1 |
| 20260505214552 | 30 | 219 | 0.0 | 4.8 | 0.00 | 0.00 | 0.00 | 69 | 1005.1 |
| 20260505214041 | 30 | 234 | 1.6 | 4.8 | 0.00 | 0.00 | 0.00 | 69 | 1005.2 |
| 20260505213542 | 30 | 240 | 0.0 | 4.8 | 0.00 | 0.00 | 0.00 | 69 | 1005.4 |
| 20260505213049 | 30 | 0 | 1.6 | 4.8 | 0.00 | 0.00 | 0.00 | 69 | 1005.3 |
| 20260505212537 | 30 | 163 | 0.0 | 3.2 | 0.00 | 0.00 | 0.00 | 70 | 1005.3 |
| 20260505212038 | 30 | 198 | 1.6 | 3.2 | 0.00 | 0.00 | 0.00 | 70 | 1005.3 |
| 20260505211547 | 30 | 243 | 0.0 | 3.2 | 0.00 | 0.00 | 0.00 | 70 | 1005.5 |
| 20260505211039 | 30 | 164 | 0.0 | 3.2 | 0.00 | 0.00 | 0.00 | 69 | 1005.5 |
| 20260505210538 | 30 | 157 | 1.6 | 4.8 | 0.00 | 0.00 | 0.00 | 69 | 1005.4 |
| 20260505210048 | 30 | 221 | 0.0 | 4.8 | 0.00 | 0.00 | 0.00 | 70 | 1005.4 |
| 20260505205541 | 29 | 210 | 3.2 | 4.8 | 0.00 | 0.00 | 0.00 | 69 | 1005.4 |
| 20260505205038 | 30 | 198 | 1.6 | 4.8 | 0.00 | 0.00 | 0.00 | 68 | 1005.5 |
| 20260505204551 | 30 | 188 | 1.6 | 4.8 | 0.00 | 0.00 | 0.00 | 69 | 1005.7 |
| 20260505204038 | 30 | 167 | 0.0 | 4.8 | 0.00 | 0.00 | 0.00 | 68 | 1005.8 |
| 20260505203539 | 30 | 194 | 1.6 | 6.4 | 0.00 | 0.00 | 0.00 | 69 | 1005.7 |
| 20260505203056 | 30 | 153 | 1.6 | 6.4 | 0.00 | 0.00 | 0.00 | 68 | 1005.8 |
| 20260505202538 | 30 | 0 | 1.6 | 6.4 | 0.00 | 0.00 | 0.00 | 69 | 1005.8 |
| 20260505202038 | 30 | 205 | 0.0 | 6.4 | 0.00 | 0.00 | 0.00 | 70 | 1005.9 |
| 20260505201554 | 30 | 254 | 1.6 | 6.4 | 0.00 | 0.00 | 0.00 | 69 | 1006.0 |
| 20260505201039 | 30 | 188 | 1.6 | 6.4 | 0.00 | 0.00 | 0.00 | 71 | 1006.0 |
| 20260505200539 | 29 | 217 | 1.6 | 4.8 | 0.00 | 0.00 | 0.00 | 70 | 1006.2 |
| 20260505200052 | 29 | 208 | 1.6 | 4.8 | 0.00 | 0.00 | 0.00 | 70 | 1006.1 |
| 20260505195540 | 29 | 217 | 1.6 | 9.7 | 0.00 | 0.00 | 0.00 | 70 | 1006.2 |
| 20260505195038 | 29 | 245 | 1.6 | 9.7 | 0.00 | 0.00 | 0.00 | 70 | 1006.0 |
| 20260505194558 | 29 | 221 | 3.2 | 9.7 | 0.00 | 0.00 | 0.00 | 69 | 1006.0 |
| 20260505194040 | 29 | 165 | 1.6 | 8.0 | 0.00 | 0.00 | 0.00 | 71 | 1006.1 |
| 20260505193538 | 28 | 246 | 1.6 | 8.0 | 0.00 | 0.00 | 0.00 | 70 | 1006.0 |
| 20260505193114 | 28 | 161 | 1.6 | 6.4 | 0.00 | 0.00 | 0.00 | 73 | 1006.2 |
| 20260505192538 | 28 | 156 | 3.2 | 6.4 | 0.00 | 0.00 | 0.00 | 71 | 1006.1 |
| 20260505192038 | 28 | 197 | 1.6 | 6.4 | 0.00 | 0.00 | 0.00 | 71 | 1006.2 |
| 20260505191547 | 28 | 218 | 0.0 | 6.4 | 0.00 | 0.00 | 0.00 | 72 | 1006.4 |
| 20260505191040 | 28 | 235 | 1.6 | 4.8 | 0.00 | 0.00 | 0.00 | 72 | 1006.5 |
| 20260505190539 | 28 | 250 | 1.6 | 6.4 | 0.00 | 0.00 | 0.00 | 72 | 1006.5 |
| 20260505190053 | 28 | 200 | 1.6 | 6.4 | 0.00 | 0.00 | 0.00 | 72 | 1006.4 |
| 20260505185539 | 28 | 205 | 1.6 | 6.4 | 0.00 | 0.00 | 0.00 | 73 | 1006.5 |
| 20260505185038 | 28 | 163 | 1.6 | 6.4 | 0.00 | 0.00 | 0.00 | 73 | 1006.7 |
| 20260505184555 | 28 | 206 | 3.2 | 11.3 | 0.00 | 0.00 | 0.00 | 72 | 1006.8 |
| 20260505184043 | 28 | 201 | 3.2 | 11.3 | 0.00 | 0.00 | 0.00 | 72 | 1006.7 |
| 20260505183539 | 28 | 226 | 1.6 | 4.8 | 0.00 | 0.00 | 0.00 | 72 | 1006.8 |
| 20260505183047 | 27 | 245 | 1.6 | 6.4 | 0.00 | 0.00 | 0.00 | 73 | 1006.8 |
| 20260505182538 | 27 | 153 | 1.6 | 6.4 | 0.00 | 0.00 | 0.00 | 74 | 1006.8 |
| 20260505182038 | 27 | 242 | 3.2 | 6.4 | 0.00 | 0.00 | 0.00 | 73 | 1006.8 |
| 20260505181550 | 27 | 159 | 3.2 | 6.4 | 0.00 | 0.00 | 0.00 | 73 | 1006.7 |
| 20260505181038 | 27 | 167 | 3.2 | 6.4 | 0.00 | 0.00 | 0.00 | 74 | 1006.8 |
| 20260505180538 | 27 | 227 | 1.6 | 4.8 | 0.00 | 0.00 | 0.00 | 74 | 1006.8 |
| 20260505180055 | 27 | 211 | 0.0 | 6.4 | 0.00 | 0.00 | 0.00 | 75 | 1006.8 |
| 20260505175538 | 27 | 198 | 1.6 | 6.4 | 0.00 | 0.00 | 0.00 | 74 | 1006.9 |
| 20260505175039 | 27 | 165 | 0.0 | 4.8 | 0.00 | 0.00 | 0.00 | 74 | 1006.9 |
| 20260505174552 | 27 | 211 | 1.6 | 8.0 | 0.00 | 0.00 | 0.00 | 74 | 1007.0 |
| 20260505174037 | 27 | 226 | 1.6 | 8.0 | 0.00 | 0.00 | 0.00 | 74 | 1007.2 |
| 20260505173538 | 27 | 253 | 0.0 | 4.8 | 0.00 | 0.00 | 0.00 | 75 | 1007.1 |
| 20260505173047 | 27 | 166 | 3.2 | 4.8 | 0.00 | 0.00 | 0.00 | 74 | 1007.0 |
| 20260505172538 | 27 | 215 | 1.6 | 4.8 | 0.00 | 0.00 | 0.00 | 74 | 1006.9 |
| 20260505172039 | 27 | 0 | 0.0 | 8.0 | 0.00 | 0.00 | 0.00 | 75 | 1006.9 |
| 20260505171551 | 27 | 174 | 1.6 | 8.0 | 0.00 | 0.00 | 0.00 | 74 | 1007.0 |
| 20260505171039 | 27 | 167 | 1.6 | 11.3 | 0.00 | 0.00 | 0.00 | 76 | 1006.9 |
| 20260505170538 | 26 | 229 | 1.6 | 11.3 | 0.00 | 0.00 | 0.00 | 75 | 1006.9 |
| 20260505170050 | 26 | 205 | 3.2 | 6.4 | 0.00 | 0.00 | 0.00 | 75 | 1006.8 |
| 20260505165538 | 26 | 159 | 1.6 | 9.7 | 0.00 | 0.00 | 0.00 | 76 | 1006.8 |
| 20260505165038 | 26 | 197 | 3.2 | 9.7 | 0.00 | 0.00 | 0.00 | 75 | 1006.6 |
| 20260505164550 | 26 | 213 | 3.2 | 8.0 | 0.00 | 0.00 | 0.00 | 74 | 1006.7 |
| 20260505164039 | 26 | 243 | 1.6 | 6.4 | 0.00 | 0.00 | 0.00 | 76 | 1006.7 |
| 20260505163538 | 26 | 221 | 1.6 | 8.0 | 0.00 | 0.00 | 0.00 | 77 | 1006.8 |
| 20260505163052 | 26 | 235 | 3.2 | 9.7 | 0.00 | 0.00 | 0.00 | 76 | 1006.8 |
| 20260505162539 | 26 | 156 | 3.2 | 9.7 | 0.00 | 0.00 | 0.00 | 76 | 1007.0 |
| 20260505162039 | 25 | 205 | 3.2 | 9.7 | 0.00 | 0.00 | 0.00 | 77 | 1006.9 |
| 20260505161548 | 25 | 158 | 1.6 | 8.0 | 0.00 | 0.00 | 0.00 | 78 | 1007.0 |
| 20260505161039 | 25 | 264 | 3.2 | 9.7 | 0.00 | 0.00 | 0.00 | 78 | 1007.2 |
| 20260505160539 | 25 | 198 | 3.2 | 9.7 | 0.00 | 0.00 | 0.00 | 78 | 1007.1 |
| 20260505153056 | 25 | 196 | 3.2 | 9.7 | 0.00 | 0.00 | 0.00 | 78 | 1006.9 |
| 20260505152538 | 25 | 169 | 1.6 | 6.4 | 0.00 | 0.00 | 0.00 | 79 | 1006.8 |
| 20260505152037 | 25 | 165 | 1.6 | 6.4 | 0.00 | 0.00 | 0.00 | 79 | 1007.0 |
| 20260505151554 | 24 | 224 | 1.6 | 9.7 | 0.00 | 0.00 | 0.00 | 81 | 1007.0 |
| 20260505151039 | 24 | 206 | 3.2 | 9.7 | 0.00 | 0.00 | 0.00 | 80 | 1007.0 |
| 20260505150537 | 24 | 219 | 1.6 | 8.0 | 0.00 | 0.00 | 0.00 | 80 | 1007.1 |
| 20260505140537 | 22 | 219 | 1.6 | 4.8 | 0.00 | 0.00 | 0.00 | 85 | 1006.8 |